EW4266 Weather Reports


Display with metric or nautical units.
time (UTC)temp
F
wind
direction
speed
MPH
gust
MPH
rain 1hr
in
rain 24hr
in
rain mn
in
humidity
%
barometer
mb
20260507124822 46 223 3.0 11.0 0.00 0.69 0.00 1 1009.1
20260507124748 46 281 2.0 11.0 0.00 0.69 0.00 1 1009.1
20260507124650 46 195 2.0 11.0 0.00 0.69 0.00 1 1009.1
20260507124611 46 236 2.0 11.0 0.00 0.69 0.00 1 1009.1
20260507124545 46 234 3.0 11.0 0.00 0.69 0.00 1 1009.1
20260507124409 46 240 4.0 11.0 0.00 0.69 0.00 1 1009.2
20260507124331 46 244 4.0 11.0 0.00 0.69 0.00 1 1009.2
20260507124211 46 194 4.0 9.0 0.00 0.69 0.00 1 1009.2
20260507124124 46 240 4.0 9.0 0.00 0.69 0.00 1 1009.1
20260507123955 46 304 3.0 9.0 0.00 0.69 0.00 1 1009.1
20260507123856 46 267 2.0 9.0 0.00 0.69 0.00 1 1009.1
20260507123636 46 313 3.0 9.0 0.00 0.69 0.00 1 1009.1
20260507123544 46 279 4.0 11.0 0.00 0.69 0.00 1 1009.1
20260507123426 46 186 3.0 11.0 0.00 0.69 0.00 1 1009.1
20260507123350 46 240 2.0 11.0 0.00 0.69 0.00 1 1009.1
20260507123244 46 248 4.0 11.0 0.00 0.69 0.00 1 1009.1
20260507123204 46 250 4.0 11.0 0.00 0.69 0.00 1 1009.1
20260507123119 46 279 3.0 11.0 0.00 0.69 0.00 1 1009.1
20260507122928 45 304 3.0 11.0 0.00 0.69 0.00 1 1009.2
20260507122824 45 307 5.0 11.0 0.00 0.69 0.00 1 1009.2
20260507122723 45 276 4.0 7.0 0.00 0.69 0.00 1 1009.2
20260507122645 45 192 3.0 8.0 0.00 0.69 0.00 1 1009.2
20260507122455 45 298 2.0 7.0 0.00 0.69 0.00 1 1009.2
20260507122410 45 206 1.0 7.0 0.00 0.69 0.00 1 1009.2
20260507122219 45 219 2.0 7.0 0.00 0.69 0.00 1 1009.2
20260507122142 45 197 2.0 7.0 0.00 0.69 0.00 1 1009.2
20260507122013 45 246 1.0 7.0 0.00 0.69 0.00 1 1009.3
20260507121927 45 246 2.0 7.0 0.00 0.69 0.00 1 1009.3
20260507121739 45 254 3.0 7.0 0.00 0.69 0.00 1 1009.3
20260507121634 44 253 3.0 6.0 0.00 0.69 0.00 1 1009.2
20260507121532 44 210 3.0 5.0 0.00 0.69 0.00 1 1009.1
20260507121432 45 298 2.0 5.0 0.00 0.69 0.00 1 1009.0
20260507121326 44 238 1.0 5.0 0.00 0.69 0.00 1 1009.1
20260507121249 44 288 1.0 5.0 0.00 0.69 0.00 1 1009.1
20260507121204 44 5 1.0 5.0 0.00 0.69 0.00 1 1009.0
20260507121033 44 303 1.0 5.0 0.00 0.69 0.00 1 1009.1
20260507120935 44 296 2.0 5.0 0.00 0.69 0.00 1 1009.1
20260507120735 44 346 1.0 6.0 0.00 0.69 0.00 1 1009.1
20260507120657 44 316 2.0 6.0 0.00 0.69 0.00 1 1009.1
20260507120525 44 302 3.0 6.0 0.00 0.69 0.00 1 1009.1
20260507120449 43 236 4.0 6.0 0.00 0.69 0.00 1 1009.1
20260507120343 43 214 4.0 6.0 0.00 0.69 0.00 1 1009.0
20260507120304 43 178 3.0 6.0 0.00 0.69 0.00 1 1009.0
20260507120218 43 149 3.0 6.0 0.00 0.69 0.00 1 1009.0
20260507120140 43 196 3.0 6.0 0.00 0.69 0.00 1 1009.0
20260507120010 43 198 2.0 5.0 0.00 0.69 0.00 1 1009.1
20260507115924 43 219 3.0 5.0 0.00 0.71 0.00 1 1009.0
20260507115734 43 204 1.0 6.0 0.00 0.71 0.00 1 1009.0
20260507115613 43 50 1.0 6.0 0.00 0.71 0.00 1 1009.0
20260507115528 43 244 2.0 6.0 0.00 0.71 0.00 1 1009.0
20260507115430 43 229 2.0 6.0 0.00 0.71 0.00 1 1009.1
20260507115354 43 234 2.0 6.0 0.00 0.71 0.00 1 1009.1
20260507115256 43 189 3.0 6.0 0.00 0.71 0.00 1 1009.0
20260507115157 44 235 4.0 6.0 0.00 0.71 0.00 1 1008.9
20260507115006 44 204 4.0 6.0 0.00 0.71 0.00 1 1008.9
20260507114921 44 199 3.0 5.0 0.00 0.71 0.00 1 1008.9
20260507114732 44 201 2.0 4.0 0.00 0.71 0.00 1 1008.9
20260507114630 44 217 2.0 3.0 0.00 0.71 0.00 1 1008.8
20260507114554 44 210 2.0 3.0 0.00 0.71 0.00 1 1008.8
20260507114459 44 210 2.0 3.0 0.00 0.71 0.00 1 1008.8
20260507114420 44 210 1.0 3.0 0.00 0.71 0.00 1 1008.7
20260507114249 44 202 0.0 0.0 0.00 0.71 0.00 1 1008.7
20260507114143 44 202 0.0 0.0 0.00 0.71 0.00 1 1008.7
20260507114014 43 202 0.0 0.0 0.00 0.71 0.00 1 1008.6
20260507113936 43 202 0.0 3.0 0.00 0.71 0.00 1 1008.6
20260507113805 43 202 0.0 4.0 0.00 0.71 0.00 1 1008.6
20260507113720 43 202 0.0 4.0 0.00 0.71 0.00 1 1008.6
20260507113529 43 201 0.0 4.0 0.00 0.71 0.00 1 1008.6
20260507113444 43 188 0.0 4.0 0.00 0.71 0.00 1 1008.6
20260507113317 43 171 0.0 4.0 0.00 0.71 0.00 1 1008.5
20260507113239 43 171 1.0 4.0 0.00 0.71 0.00 1 1008.5
20260507113042 43 167 3.0 5.0 0.00 0.71 0.00 1 1008.5
20260507113005 43 175 3.0 5.0 0.00 0.71 0.00 1 1008.4
20260507112904 43 155 2.0 5.0 0.00 0.71 0.00 1 1008.4
20260507112826 43 161 2.0 5.0 0.00 0.71 0.00 1 1008.4
20260507112639 43 153 0.0 3.0 0.00 0.71 0.00 1 1008.5
20260507112532 43 185 0.0 3.0 0.00 0.71 0.00 1 1008.5
20260507112456 43 185 0.0 3.0 0.00 0.71 0.00 1 1008.5
20260507112345 43 185 1.0 3.0 0.00 0.71 0.00 1 1008.5
20260507112307 43 185 1.0 4.0 0.00 0.71 0.00 1 1008.5
20260507112150 43 185 1.0 4.0 0.00 0.71 0.00 1 1008.5
20260507112111 43 185 1.0 4.0 0.00 0.71 0.00 1 1008.5
20260507111921 43 185 2.0 4.0 0.00 0.71 0.00 1 1008.5
20260507111837 43 185 2.0 4.0 0.00 0.71 0.00 1 1008.5
20260507111706 43 150 1.0 4.0 0.00 0.71 0.00 1 1008.5
20260507111628 43 149 2.0 4.0 0.00 0.71 0.00 1 1008.6
20260507111430 43 226 3.0 5.0 0.00 0.71 0.00 1 1008.4
20260507111353 43 181 3.0 5.0 0.00 0.71 0.00 1 1008.4
20260507111237 43 159 3.0 5.0 0.00 0.71 0.00 1 1008.5
20260507111144 43 186 2.0 3.0 0.00 0.71 0.00 1 1008.5
20260507111038 44 178 1.0 2.0 0.00 0.71 0.00 1 1008.6
20260507111001 44 279 0.0 2.0 0.00 0.71 0.00 1 1008.6
20260507110904 43 279 0.0 2.0 0.00 0.71 0.00 1 1008.6
20260507110824 44 279 1.0 2.0 0.00 0.71 0.00 1 1008.6
20260507110654 44 279 1.0 2.0 0.00 0.71 0.00 1 1008.6
20260507110527 44 279 0.0 2.0 0.00 0.71 0.00 1 1008.6
20260507110450 44 279 0.0 2.0 0.00 0.71 0.00 1 1008.6
20260507110354 44 279 0.0 3.0 0.00 0.71 0.00 1 1008.6
20260507110316 44 279 0.0 3.0 0.00 0.71 0.00 1 1008.5
20260507110124 44 279 0.0 3.0 0.00 0.71 0.00 1 1008.6
20260507110027 44 279 0.0 3.0 0.00 0.71 0.00 1 1008.5
20260507105932 44 279 0.0 3.0 0.00 0.72 0.00 1 1008.5
20260507105854 44 279 1.0 3.0 0.00 0.72 0.00 1 1008.5
20260507105816 44 279 1.0 3.0 0.00 0.72 0.00 1 1008.5
20260507105638 44 279 1.0 3.0 0.00 0.72 0.00 1 1008.5
20260507105542 44 279 2.0 3.0 0.00 0.72 0.00 1 1008.5
20260507105425 44 279 1.0 3.0 0.00 0.72 0.00 1 1008.5
20260507105349 44 277 0.0 3.0 0.00 0.72 0.00 1 1008.5
20260507105314 44 273 0.0 4.0 0.00 0.72 0.00 1 1008.5
20260507105116 44 273 2.0 4.0 0.00 0.72 0.00 1 1008.5
20260507105044 44 273 2.0 4.0 0.00 0.72 0.00 1 1008.5
20260507104945 44 227 2.0 4.0 0.00 0.72 0.00 1 1008.4
20260507104829 44 194 2.0 4.0 0.00 0.72 0.00 1 1008.4
20260507104755 44 194 2.0 4.0 0.00 0.72 0.00 1 1008.4
20260506214648 44 350 5.0 9.0 0.02 1.10 0.95 1 1007.8
20260506214548 44 336 5.0 9.0 0.02 1.10 0.95 1 1007.8
20260506214341 44 18 3.0 8.0 0.02 1.09 0.94 1 1007.8
20260506214233 44 360 4.0 8.0 0.02 1.09 0.94 1 1007.8
20260506214155 44 360 5.0 8.0 0.02 1.09 0.94 1 1007.8
20260506214038 44 350 5.0 8.0 0.02 1.09 0.94 1 1007.8
20260506213933 44 323 3.0 9.0 0.02 1.09 0.94 1 1007.8
20260506213827 44 355 3.0 9.0 0.02 1.09 0.94 1 1007.8
20260506213748 44 61 4.0 9.0 0.02 1.09 0.94 1 1007.8
20260506213709 44 327 5.0 9.0 0.03 1.09 0.94 1 1007.8
20260506213613 44 338 5.0 10.0 0.03 1.09 0.94 1 1007.8
20260506213516 44 328 5.0 10.0 0.03 1.09 0.94 1 1007.8
20260506213436 44 333 6.0 10.0 0.03 1.09 0.94 1 1007.8
20260506213305 44 331 5.0 11.0 0.03 1.09 0.94 1 1007.8
20260506213138 44 333 5.0 11.0 0.03 1.09 0.94 1 1007.8
20260506213022 44 338 5.0 11.0 0.03 1.09 0.94 1 1007.8
20260506212944 44 360 5.0 11.0 0.03 1.09 0.94 1 1007.8
20260506212905 44 325 6.0 11.0 0.03 1.09 0.94 1 1007.7
20260506212757 44 355 6.0 11.0 0.03 1.09 0.94 1 1007.7
20260506212638 44 355 5.0 11.0 0.04 1.09 0.94 1 1007.7
20260506212545 44 329 7.0 11.0 0.04 1.09 0.94 1 1007.7
20260506212425 44 360 8.0 11.0 0.04 1.09 0.94 1 1007.7
20260506212348 44 333 7.0 11.0 0.04 1.09 0.94 1 1007.7
20260506212251 44 342 6.0 11.0 0.04 1.09 0.94 1 1007.7
20260506212211 44 333 6.0 11.0 0.04 1.09 0.94 1 1007.7
20260506212041 44 348 6.0 10.0 0.04 1.09 0.94 1 1007.7
20260506211935 44 346 7.0 10.0 0.04 1.09 0.94 1 1007.7
20260506211835 44 355 5.0 10.0 0.05 1.09 0.94 1 1007.7
20260506211734 44 5 4.0 10.0 0.05 1.09 0.94 1 1007.6
20260506211616 44 343 5.0 10.0 0.05 1.09 0.94 1 1007.6
20260506211537 44 335 5.0 10.0 0.05 1.09 0.94 1 1007.6
20260506211323 44 342 7.0 11.0 0.05 1.09 0.94 1 1007.6
20260506211224 44 337 7.0 11.0 0.05 1.09 0.94 1 1007.5
20260506211128 44 344 6.0 11.0 0.05 1.09 0.94 1 1007.5
20260506211049 44 5 6.0 11.0 0.05 1.09 0.94 1 1007.5
20260506210830 44 321 5.0 11.0 0.05 1.09 0.94 1 1007.5
20260506210730 44 5 6.0 11.0 0.05 1.09 0.94 1 1007.5
20260506210634 44 345 7.0 11.0 0.05 1.09 0.94 1 1007.4
20260506210557 44 333 7.0 11.0 0.05 1.09 0.94 1 1007.4
20260506210519 44 333 8.0 11.0 0.05 1.09 0.94 1 1007.4
20260506210326 44 355 6.0 12.0 0.04 1.08 0.93 1 1007.4
20260506210227 44 344 5.0 12.0 0.04 1.08 0.93 1 1007.4
20260506210130 44 355 6.0 12.0 0.04 1.08 0.93 1 1007.4
20260506210051 44 345 6.0 12.0 0.04 1.08 0.93 1 1007.4
20260506205921 44 340 4.0 12.0 0.04 1.25 0.93 1 1007.4
20260506205837 44 348 5.0 12.0 0.04 1.25 0.93 1 1007.4
20260506205704 44 36 8.0 12.0 0.04 1.25 0.93 1 1007.5
20260506205625 44 335 8.0 12.0 0.04 1.25 0.93 1 1007.5
20260506205427 44 317 4.0 8.0 0.04 1.25 0.93 1 1007.5
20260506205349 44 19 3.0 8.0 0.04 1.25 0.93 1 1007.5
20260506205253 44 16 3.0 8.0 0.04 1.25 0.93 1 1007.6
20260506205217 44 355 3.0 9.0 0.04 1.25 0.93 1 1007.6
20260506205045 44 355 4.0 9.0 0.04 1.25 0.93 1 1007.6
20260506204946 44 347 4.0 9.0 0.04 1.25 0.93 1 1007.6
20260506204840 44 337 4.0 9.0 0.04 1.25 0.93 1 1007.7
20260506204802 44 344 4.0 9.0 0.04 1.25 0.93 1 1007.7
20260506204704 44 317 3.0 9.0 0.04 1.25 0.93 1 1007.7
20260506204624 44 329 4.0 9.0 0.04 1.25 0.93 1 1007.6
20260506204427 44 347 6.0 9.0 0.03 1.24 0.92 1 1007.6
20260506204327 44 350 5.0 9.0 0.03 1.24 0.92 1 1007.6
20260506204228 44 355 4.0 9.0 0.03 1.24 0.92 1 1007.6
20260506204135 44 332 6.0 9.0 0.03 1.24 0.92 1 1007.6
20260506204039 44 323 7.0 9.0 0.03 1.24 0.92 1 1007.6
20260506203923 44 319 4.0 9.0 0.03 1.24 0.92 1 1007.6
20260506203845 44 313 4.0 8.0 0.03 1.24 0.92 1 1007.6
20260506203805 44 327 4.0 8.0 0.02 1.23 0.91 1 1007.6
20260506203708 44 315 4.0 8.0 0.02 1.23 0.91 1 1007.6
20260506203629 44 304 3.0 8.0 0.03 1.23 0.91 1 1007.7
20260506203434 44 333 5.0 11.0 0.03 1.23 0.91 1 1007.7
20260506203339 44 329 5.0 11.0 0.03 1.23 0.91 1 1007.7
20260506203222 44 340 4.0 11.0 0.03 1.23 0.91 1 1007.7
20260506203145 44 327 4.0 11.0 0.03 1.23 0.91 1 1007.7
20260506203040 44 330 5.0 11.0 0.03 1.23 0.91 1 1007.6
20260506202924 44 360 6.0 12.0 0.03 1.23 0.91 1 1007.6
20260506202826 44 340 7.0 12.0 0.03 1.23 0.91 1 1007.6
20260506202749 44 309 7.0 12.0 0.03 1.23 0.91 1 1007.6
20260506202651 44 333 6.0 12.0 0.02 1.22 0.90 1 1007.6
20260506202612 44 340 6.0 12.0 0.02 1.22 0.90 1 1007.6
20260506202515 44 315 7.0 12.0 0.02 1.22 0.90 1 1007.6
20260506202420 44 313 8.0 12.0 0.02 1.22 0.90 1 1007.6
20260506202340 44 319 8.0 12.0 0.02 1.22 0.90 1 1007.6
20260506202208 44 343 7.0 12.0 0.02 1.22 0.90 1 1007.6
20260506202121 44 344 5.0 12.0 0.02 1.22 0.90 1 1007.6
20260506201931 44 329 5.0 12.0 0.02 1.22 0.90 1 1007.6
20260506201846 44 323 5.0 12.0 0.01 1.21 0.89 1 1007.6
20260506201715 44 336 6.0 12.0 0.01 1.21 0.89 1 1007.7
20260506201636 44 310 7.0 12.0 0.02 1.21 0.89 1 1007.6
20260506201438 44 323 6.0 12.0 0.02 1.21 0.89 1 1007.5
20260506201346 44 327 7.0 12.0 0.02 1.21 0.89 1 1007.5
20260506201227 44 320 7.0 12.0 0.02 1.21 0.89 1 1007.6
20260506201148 44 326 7.0 12.0 0.02 1.21 0.89 1 1007.5
20260506201031 44 311 8.0 12.0 0.02 1.21 0.89 1 1007.5
20260506200953 45 346 7.0 9.0 0.02 1.21 0.89 1 1007.5
20260506200915 45 344 7.0 9.0 0.03 1.21 0.89 1 1007.5
20260506200818 45 5 5.0 9.0 0.03 1.21 0.89 1 1007.5
20260506200739 45 351 5.0 9.0 0.03 1.21 0.89 1 1007.5
20260506200610 45 349 6.0 9.0 0.03 1.21 0.89 1 1007.5
20260506200526 45 342 5.0 9.0 0.03 1.21 0.89 1 1007.4
20260506200335 45 321 5.0 9.0 0.03 1.21 0.89 1 1007.5
20260506200253 45 310 6.0 9.0 0.03 1.21 0.89 1 1007.5
20260506200123 45 328 6.0 9.0 0.04 1.21 0.89 1 1007.4
20260506200044 45 317 6.0 9.0 0.04 1.21 0.89 1 1007.4
20260506195913 45 327 5.0 9.0 0.04 1.27 0.89 1 1007.4
20260506195828 45 319 6.0 9.0 0.04 1.27 0.89 1 1007.4
20260506195638 45 314 5.0 9.0 0.05 1.27 0.89 1 1007.3
20260506195532 45 308 6.0 9.0 0.05 1.27 0.89 1 1007.4
20260506195426 45 333 5.0 9.0 0.05 1.27 0.89 1 1007.3
20260506195346 45 338 5.0 9.0 0.05 1.27 0.89 1 1007.3
20260506195215 45 313 7.0 9.0 0.05 1.27 0.89 1 1007.3
20260506195134 45 321 7.0 9.0 0.05 1.27 0.89 1 1007.3
20260506194945 45 311 6.0 9.0 0.06 1.27 0.89 1 1007.3
20260506194859 45 321 6.0 9.0 0.06 1.27 0.89 1 1007.3
20260506194717 45 336 5.0 10.0 0.06 1.27 0.89 1 1007.2
20260506194617 45 349 4.0 10.0 0.06 1.27 0.89 1 1007.4
20260506194520 45 344 5.0 10.0 0.06 1.27 0.89 1 1007.4
20260506194442 45 316 6.0 10.0 0.06 1.27 0.89 1 1007.4
20260506194311 45 338 5.0 10.0 0.06 1.27 0.89 1 1007.3
20260506194212 45 325 5.0 10.0 0.06 1.27 0.89 1 1007.3
20260506194054 45 312 5.0 10.0 0.06 1.27 0.89 1 1007.3
20260506194015 45 344 7.0 10.0 0.06 1.27 0.89 1 1007.3
20260506193915 45 313 6.0 10.0 0.06 1.27 0.89 1 1007.3
20260506193821 45 322 5.0 10.0 0.06 1.27 0.89 1 1007.3
20260506193742 45 360 4.0 9.0 0.06 1.27 0.89 1 1007.3
20260506193611 45 315 4.0 9.0 0.06 1.26 0.88 1 1007.3
20260506193525 45 335 5.0 9.0 0.06 1.26 0.88 1 1007.4
20260506193335 45 337 6.0 9.0 0.06 1.26 0.88 1 1007.4
20260506193247 45 329 5.0 9.0 0.06 1.26 0.88 1 1007.4
20260506193116 45 298 5.0 9.0 0.06 1.26 0.88 1 1007.3
20260506193016 45 303 7.0 9.0 0.06 1.26 0.88 1 1007.4
20260506192838 45 321 7.0 9.0 0.06 1.26 0.88 1 1007.4
20260506192759 45 311 4.0 9.0 0.06 1.26 0.88 1 1007.3
20260506192523 45 317 4.0 8.0 0.06 1.26 0.88 1 1007.4
20260506192446 45 317 4.0 8.0 0.06 1.26 0.88 1 1007.4
20260506192348 45 312 5.0 8.0 0.06 1.26 0.88 1 1007.4
20260506192228 45 339 5.0 8.0 0.06 1.26 0.88 1 1007.3
20260506192130 45 317 4.0 8.0 0.06 1.26 0.88 1 1007.3
20260506192052 45 319 4.0 6.0 0.06 1.26 0.88 1 1007.3
20260506192013 45 313 3.0 5.0 0.07 1.26 0.88 1 1007.3
20260506191916 45 323 3.0 5.0 0.07 1.26 0.88 1 1007.3
20260506191837 45 326 3.0 5.0 0.07 1.26 0.88 1 1007.2
20260506191705 45 327 3.0 5.0 0.06 1.25 0.87 1 1007.2
20260506191618 45 334 3.0 5.0 0.06 1.25 0.87 1 1007.2
20260506191451 45 349 2.0 5.0 0.06 1.25 0.87 1 1007.2
20260506191351 45 332 2.0 5.0 0.06 1.25 0.87 1 1007.2
20260506191133 44 341 2.0 5.0 0.06 1.25 0.87 1 1007.3
20260506191056 44 37 2.0 5.0 0.06 1.25 0.87 1 1007.3
20260506190939 44 355 2.0 5.0 0.05 1.24 0.86 1 1007.2
20260506190901 44 355 3.0 5.0 0.05 1.24 0.86 1 1007.2
20260506190816 44 355 3.0 5.0 0.05 1.24 0.86 1 1007.3
20260506190625 44 348 4.0 5.0 0.05 1.24 0.86 1 1007.2
20260506190549 44 343 4.0 5.0 0.05 1.24 0.86 1 1007.2
20260506190447 44 333 4.0 5.0 0.05 1.24 0.86 1 1007.3
20260506190408 44 347 3.0 5.0 0.05 1.24 0.86 1 1007.3
20260506190313 44 326 2.0 4.0 0.04 1.23 0.85 1 1007.3
20260506190233 44 346 2.0 4.0 0.04 1.23 0.85 1 1007.3
20260506185936 44 350 2.0 5.0 0.04 1.24 0.85 1 1007.3
20260506185830 44 350 3.0 5.0 0.04 1.24 0.85 1 1007.2
20260506185750 44 11 2.0 5.0 0.04 1.24 0.85 1 1007.2
20260506185620 44 16 2.0 5.0 0.03 1.23 0.84 1 1007.3
20260506185534 44 13 3.0 5.0 0.03 1.23 0.84 1 1007.5
20260506185348 44 348 3.0 5.0 0.03 1.23 0.84 1 1007.5
20260506185241 44 342 3.0 5.0 0.03 1.23 0.84 1 1007.5
20260506185115 44 5 3.0 5.0 0.02 1.22 0.83 1 1007.5
20260506185047 44 11 2.0 8.0 0.02 1.22 0.83 1 1007.5
20260506185009 44 360 2.0 8.0 0.02 1.22 0.83 1 1007.6
20260506184822 44 331 3.0 8.0 0.02 1.22 0.83 1 1007.6
20260506184743 44 331 4.0 8.0 0.02 1.22 0.83 1 1007.6
20260506184626 44 314 4.0 10.0 0.02 1.22 0.83 1 1007.5
20260506184549 44 327 3.0 10.0 0.02 1.22 0.83 1 1007.5
20260506184514 44 334 4.0 10.0 0.03 1.22 0.83 1 1007.5
20260506184336 44 321 4.0 10.0 0.03 1.22 0.83 1 1007.5
20260506184247 44 347 4.0 10.0 0.03 1.22 0.83 1 1007.5
20260506184129 44 355 5.0 10.0 0.03 1.22 0.83 1 1007.5
20260506184051 44 334 5.0 10.0 0.03 1.22 0.83 1 1007.5
20260506184012 44 336 6.0 10.0 0.03 1.22 0.83 1 1007.5
20260506183814 44 360 6.0 10.0 0.03 1.22 0.83 1 1007.5
20260506183740 44 333 6.0 10.0 0.02 1.21 0.82 1 1007.5
20260506183528 44 344 4.0 9.0 0.03 1.21 0.82 1 1007.6
20260506183427 44 321 4.0 9.0 0.03 1.21 0.82 1 1007.6
20260506183349 44 327 3.0 8.0 0.03 1.21 0.82 1 1007.6
20260506183223 44 347 5.0 8.0 0.03 1.21 0.82 1 1007.6
20260506183140 44 313 5.0 8.0 0.03 1.21 0.82 1 1007.6
20260506183040 44 334 4.0 8.0 0.03 1.21 0.82 1 1007.6
20260506182935 44 337 4.0 8.0 0.03 1.21 0.82 1 1007.6
20260506182858 44 344 4.0 9.0 0.03 1.21 0.82 1 1007.6
20260506182823 44 334 4.0 9.0 0.04 1.21 0.82 1 1007.7
20260506182655 44 337 5.0 10.0 0.04 1.21 0.82 1 1007.6
20260506182556 44 338 5.0 10.0 0.04 1.21 0.82 1 1007.6
20260506182517 44 321 5.0 10.0 0.04 1.21 0.82 1 1007.6
20260506182421 44 326 4.0 10.0 0.05 1.21 0.82 1 1007.7
20260506182342 44 355 4.0 10.0 0.05 1.21 0.82 1 1007.7
20260506182212 44 314 6.0 10.0 0.05 1.21 0.82 1 1007.8
20260506182127 44 319 6.0 10.0 0.04 1.20 0.81 1 1007.7
20260506181956 44 343 7.0 10.0 0.04 1.20 0.81 1 1007.7
20260506181857 44 323 6.0 10.0 0.04 1.20 0.81 1 1007.7
20260506181759 44 343 5.0 10.0 0.05 1.20 0.81 1 1007.6
20260506181720 44 342 4.0 10.0 0.05 1.20 0.81 1 1007.6
20260506181523 44 18 6.0 11.0 0.05 1.20 0.81 1 1007.6
20260506181447 44 342 6.0 11.0 0.05 1.20 0.81 1 1007.6
20260506181318 44 360 6.0 11.0 0.05 1.20 0.81 1 1007.7
20260506181238 44 342 7.0 11.0 0.05 1.20 0.81 1 1007.8
20260506181039 44 335 5.0 11.0 0.06 1.20 0.81 1 1007.8
20260506181001 44 317 6.0 11.0 0.06 1.20 0.81 1 1007.8
20260506180843 44 327 7.0 11.0 0.06 1.20 0.81 1 1007.9
20260506180744 44 330 7.0 11.0 0.06 1.20 0.81 1 1007.9
20260506180640 44 324 8.0 11.0 0.06 1.20 0.81 1 1007.8
20260506180524 44 342 9.0 11.0 0.06 1.20 0.81 1 1007.8
20260506180450 44 321 9.0 11.0 0.06 1.20 0.81 1 1007.8
20260506180411 44 311 8.0 11.0 0.06 1.20 0.81 1 1007.9
20260506180232 44 323 6.0 10.0 0.06 1.20 0.81 1 1007.9
20260506180152 44 336 5.0 10.0 0.06 1.20 0.81 1 1008.0
20260506175933 44 341 6.0 10.0 0.06 1.20 0.81 1 1008.0
20260506175854 44 342 6.0 10.0 0.06 1.20 0.81 1 1008.0
20260506175757 44 327 5.0 10.0 0.07 1.20 0.81 1 1007.9
20260506175637 44 333 5.0 10.0 0.07 1.20 0.81 1 1007.9
20260506175541 44 32 6.0 10.0 0.07 1.20 0.81 1 1007.9
20260506175447 44 343 6.0 10.0 0.07 1.20 0.81 1 1007.9
20260506175409 44 335 6.0 10.0 0.07 1.20 0.81 1 1007.9
20260506175313 44 5 6.0 10.0 0.07 1.20 0.81 1 1007.9
20260506175233 44 355 5.0 10.0 0.07 1.20 0.81 1 1008.0
20260506175037 44 351 4.0 9.0 0.07 1.20 0.81 1 1008.2
20260506174938 44 348 4.0 9.0 0.07 1.20 0.81 1 1008.2
20260506174840 44 338 5.0 10.0 0.07 1.20 0.81 1 1008.2
20260506174742 44 347 6.0 10.0 0.07 1.20 0.81 1 1008.2
20260506174656 44 327 5.0 10.0 0.07 1.20 0.81 1 1008.2
20260506174504 44 321 5.0 10.0 0.06 1.19 0.80 1 1008.2
20260506174428 44 315 4.0 10.0 0.06 1.19 0.80 1 1008.2
20260506174310 44 330 4.0 10.0 0.06 1.19 0.80 1 1008.3
20260506174231 44 324 6.0 10.0 0.06 1.19 0.80 1 1008.3
20260506174042 44 319 5.0 10.0 0.06 1.19 0.80 1 1008.2
20260506173935 44 336 4.0 10.0 0.07 1.19 0.80 1 1008.1
20260506173857 44 321 4.0 10.0 0.07 1.19 0.80 1 1008.1
20260506173748 44 343 5.0 10.0 0.07 1.19 0.80 1 1008.1
20260506173536 44 339 6.0 10.0 0.06 1.18 0.79 1 1008.2
20260506173431 44 346 6.0 10.0 0.06 1.18 0.79 1 1008.2
20260506173357 43 340 5.0 10.0 0.06 1.18 0.79 1 1008.2
20260506173300 43 332 5.0 9.0 0.06 1.18 0.79 1 1008.2
20260506173221 43 319 5.0 9.0 0.06 1.18 0.79 1 1008.2
20260506173049 43 320 4.0 9.0 0.07 1.18 0.79 1 1008.2
20260506172943 43 324 4.0 10.0 0.07 1.18 0.79 1 1008.2
20260506172844 43 311 5.0 10.0 0.06 1.17 0.78 1 1008.3
20260506172726 43 324 4.0 10.0 0.06 1.17 0.78 1 1008.2
20260506172648 43 332 4.0 10.0 0.06 1.17 0.78 1 1008.2
20260506172523 43 323 5.0 10.0 0.06 1.17 0.78 1 1008.2
20260506172430 43 338 6.0 10.0 0.06 1.16 0.77 1 1008.2
20260506172352 43 328 6.0 10.0 0.06 1.16 0.77 1 1008.2
20260506172221 43 324 6.0 10.0 0.06 1.16 0.77 1 1008.3
20260506172135 43 315 6.0 10.0 0.06 1.16 0.77 1 1008.3
20260506171944 43 321 6.0 9.0 0.06 1.16 0.77 1 1008.3
20260506171847 43 348 5.0 9.0 0.05 1.15 0.76 1 1008.3
20260506171740 43 312 4.0 9.0 0.06 1.15 0.76 1 1008.3
20260506171703 43 325 4.0 9.0 0.06 1.15 0.76 1 1008.3
20260506171605 43 335 4.0 9.0 0.06 1.15 0.76 1 1008.3
20260506171526 43 360 4.0 10.0 0.06 1.15 0.76 1 1008.3
20260506171355 43 331 5.0 10.0 0.06 1.15 0.76 1 1008.3
20260506171251 43 319 5.0 10.0 0.07 1.15 0.76 1 1008.2
20260506171059 43 330 5.0 10.0 0.06 1.14 0.75 1 1008.3
20260506171000 43 344 6.0 10.0 0.06 1.14 0.75 1 1008.3
20260506170824 43 355 7.0 10.0 0.06 1.14 0.75 1 1008.2
20260506170738 43 5 7.0 10.0 0.07 1.14 0.75 1 1008.2
20260506170607 43 331 5.0 10.0 0.07 1.14 0.75 1 1008.3
20260506170528 43 332 5.0 10.0 0.07 1.14 0.75 1 1008.3
20260506170329 43 343 4.0 12.0 0.07 1.14 0.75 1 1008.4
20260506170250 43 311 4.0 12.0 0.07 1.14 0.75 1 1008.4
20260506170138 43 5 5.0 12.0 0.07 1.14 0.75 1 1008.3
20260506170022 43 355 6.0 12.0 0.08 1.14 0.75 1 1008.4
20260506165905 43 336 6.0 12.0 0.07 1.13 0.74 1 1008.3
20260506165825 43 355 6.0 12.0 0.07 1.13 0.74 1 1008.2
20260506165628 43 351 8.0 12.0 0.07 1.13 0.74 1 1008.2
20260506165530 43 321 7.0 11.0 0.08 1.13 0.74 1 1008.3
20260506165433 43 355 6.0 10.0 0.08 1.13 0.74 1 1008.3
20260506165356 43 336 7.0 10.0 0.08 1.13 0.74 1 1008.3
20260506165317 43 330 8.0 10.0 0.08 1.13 0.74 1 1008.3
20260506165219 43 347 7.0 10.0 0.08 1.13 0.74 1 1008.3
20260506165123 43 299 5.0 9.0 0.08 1.13 0.74 1 1008.4
20260506164925 43 324 4.0 10.0 0.09 1.13 0.74 1 1008.4
20260506164826 43 344 5.0 11.0 0.09 1.13 0.74 1 1008.4
20260506164729 43 332 6.0 11.0 0.09 1.13 0.74 1 1008.4
20260506164651 43 348 6.0 11.0 0.09 1.13 0.74 1 1008.4
20260506164433 43 347 7.0 11.0 0.10 1.13 0.74 1 1008.5
20260506164333 43 312 7.0 11.0 0.10 1.13 0.74 1 1008.5
20260506164236 43 330 7.0 11.0 0.10 1.13 0.74 1 1008.5
20260506164142 43 327 8.0 11.0 0.10 1.13 0.74 1 1008.5
20260506164114 44 335 8.0 11.0 0.09 1.12 0.73 1 1008.5
20260506163957 44 327 7.0 11.0 0.09 1.12 0.73 1 1008.5
20260506163919 44 319 6.0 9.0 0.10 1.12 0.73 1 1008.5
20260506163819 44 311 5.0 9.0 0.10 1.12 0.73 1 1008.5
20260506163722 44 340 5.0 9.0 0.10 1.12 0.73 1 1008.4
20260506163643 44 338 5.0 9.0 0.10 1.12 0.73 1 1008.4
20260506163513 44 5 5.0 10.0 0.10 1.12 0.73 1 1008.5
20260506163428 44 355 5.0 10.0 0.10 1.12 0.73 1 1008.5
20260506163237 44 329 5.0 10.0 0.11 1.12 0.73 1 1008.5
20260506163153 44 355 6.0 10.0 0.10 1.11 0.72 1 1008.5
20260506163023 44 330 6.0 10.0 0.10 1.11 0.72 1 1008.6
20260506162947 44 5 6.0 10.0 0.10 1.11 0.72 1 1008.6
20260506162816 44 337 5.0 10.0 0.10 1.11 0.72 1 1008.5
20260506162730 44 328 6.0 10.0 0.11 1.11 0.72 1 1008.5
20260506162540 44 311 6.0 9.0 0.11 1.11 0.72 1 1008.6
20260506162456 44 317 6.0 9.0 0.10 1.10 0.71 1 1008.6
20260506162252 44 327 6.0 8.0 0.11 1.10 0.71 1 1008.6
20260506162153 44 342 5.0 8.0 0.11 1.10 0.71 1 1008.6
20260506162038 44 344 4.0 8.0 0.11 1.10 0.71 1 1008.7
20260506161959 44 336 5.0 8.0 0.11 1.10 0.71 1 1008.7
20260506161840 44 311 5.0 8.0 0.10 1.09 0.70 1 1008.7
20260506161746 44 296 4.0 8.0 0.10 1.09 0.70 1 1008.7
20260506161641 44 324 5.0 8.0 0.11 1.09 0.70 1 1008.8
20260506161525 44 355 5.0 8.0 0.11 1.09 0.70 1 1008.8
20260506161446 44 318 4.0 8.0 0.11 1.09 0.70 1 1008.8
20260506161227 44 339 5.0 9.0 0.11 1.08 0.69 1 1008.8
20260506161128 44 322 4.0 9.0 0.11 1.08 0.69 1 1008.9
20260506161031 44 296 4.0 9.0 0.11 1.08 0.69 1 1008.9
20260506160932 44 323 4.0 10.0 0.11 1.08 0.69 1 1008.9
20260506160858 44 315 4.0 10.0 0.11 1.08 0.69 1 1008.9
20260506160801 44 323 4.0 10.0 0.10 1.07 0.68 1 1008.8
20260506160721 44 304 4.0 11.0 0.11 1.07 0.68 1 1008.9
20260506160523 44 335 5.0 11.0 0.11 1.07 0.68 1 1008.9
20260506160424 44 320 5.0 11.0 0.11 1.07 0.68 1 1008.9
20260506160328 44 329 5.0 11.0 0.11 1.07 0.68 1 1008.9
20260506160250 44 351 6.0 11.0 0.11 1.07 0.68 1 1008.9
20260506160211 44 12 6.0 11.0 0.12 1.07 0.68 1 1008.9
20260506160116 44 355 6.0 11.0 0.12 1.07 0.68 1 1008.9
20260506160038 44 350 5.0 11.0 0.11 1.06 0.67 1 1008.9
20260506155904 44 326 7.0 11.0 0.11 1.06 0.67 1 1008.9
20260506155802 44 342 5.0 9.0 0.11 1.06 0.67 1 1008.9
20260506155633 44 336 4.0 11.0 0.11 1.06 0.67 1 1008.9
20260506155533 44 333 5.0 11.0 0.11 1.05 0.66 1 1009.0
20260506155335 44 315 4.0 11.0 0.11 1.05 0.66 1 1009.0
20260506155236 44 355 4.0 11.0 0.11 1.05 0.66 1 1009.0
20260506155140 44 343 4.0 11.0 0.11 1.05 0.66 1 1008.9
20260506155102 44 315 4.0 11.0 0.11 1.05 0.66 1 1008.9
20260506155023 44 360 6.0 11.0 0.11 1.05 0.66 1 1008.8
20260506154828 44 342 7.0 11.0 0.11 1.04 0.65 1 1008.8
20260506154748 44 360 7.0 10.0 0.11 1.04 0.65 1 1008.8
20260506154614 44 360 6.0 10.0 0.11 1.04 0.65 1 1008.9
20260506154539 44 349 4.0 9.0 0.10 1.03 0.64 1 1009.0
20260506154347 44 345 4.0 9.0 0.10 1.03 0.64 1 1009.1
20260506154248 44 341 5.0 9.0 0.11 1.03 0.64 1 1009.2
20260506154129 44 332 4.0 9.0 0.11 1.03 0.64 1 1009.1
20260506154051 44 331 4.0 9.0 0.11 1.03 0.64 1 1009.1
20260506153921 44 338 6.0 9.0 0.10 1.02 0.63 1 1009.0
20260506153836 44 342 5.0 9.0 0.10 1.02 0.63 1 1009.0
20260506153705 44 316 5.0 8.0 0.10 1.02 0.63 1 1009.0
20260506153627 44 355 5.0 8.0 0.11 1.02 0.63 1 1009.0
20260506153435 44 319 3.0 8.0 0.11 1.02 0.63 1 1009.0
20260506153337 44 355 4.0 11.0 0.10 1.01 0.62 1 1009.0
20260506153240 44 355 5.0 11.0 0.10 1.01 0.62 1 1008.9
20260506153201 44 335 5.0 11.0 0.10 1.01 0.62 1 1008.9
20260506153123 44 323 4.0 11.0 0.10 1.01 0.62 1 1008.9
20260506153005 44 315 3.0 11.0 0.10 1.01 0.62 1 1008.9
20260506152926 44 325 3.0 11.0 0.10 1.01 0.62 1 1008.9
20260506152728 44 334 4.0 11.0 0.10 1.00 0.61 1 1008.8
20260506152629 44 329 6.0 11.0 0.10 1.00 0.61 1 1008.9
20260506152532 44 348 6.0 11.0 0.10 1.00 0.61 1 1008.8
20260506152438 44 306 6.0 10.0 0.10 1.00 0.61 1 1008.8
20260506152406 44 329 6.0 10.0 0.10 1.00 0.61 1 1008.8
20260506152308 44 333 6.0 10.0 0.10 1.00 0.61 1 1008.8
20260506152228 44 313 6.0 10.0 0.09 0.99 0.60 1 1008.9
20260506152031 44 319 7.0 10.0 0.09 0.99 0.60 1 1008.9
20260506151942 44 336 6.0 10.0 0.10 0.99 0.60 1 1008.9
20260506151846 44 323 6.0 10.0 0.09 0.98 0.59 1 1009.0
20260506151725 44 334 7.0 10.0 0.09 0.98 0.59 1 1009.0
20260506151628 44 329 6.0 9.0 0.09 0.98 0.59 1 1008.9
20260506151555 44 343 5.0 9.0 0.09 0.98 0.59 1 1008.9
20260506151528 44 305 5.0 9.0 0.09 0.98 0.59 1 1008.9
20260506151331 44 328 4.0 9.0 0.08 0.97 0.58 1 1008.8
20260506151253 44 330 4.0 9.0 0.08 0.97 0.58 1 1008.8
20260506151156 44 319 4.0 10.0 0.09 0.97 0.58 1 1008.8
20260506151037 44 355 4.0 10.0 0.09 0.97 0.58 1 1008.8
20260506150939 44 296 4.0 10.0 0.09 0.97 0.58 1 1008.7
20260506150903 44 334 5.0 10.0 0.09 0.97 0.58 1 1008.7
20260506150824 44 306 6.0 10.0 0.09 0.97 0.58 1 1008.7
20260506150627 44 315 5.0 10.0 0.08 0.96 0.57 1 1008.8
20260506150532 44 355 5.0 10.0 0.08 0.96 0.57 1 1008.8
20260506150436 44 304 6.0 10.0 0.08 0.96 0.57 1 1008.8
20260506150357 44 331 6.0 10.0 0.08 0.96 0.57 1 1008.8
20260506150318 44 343 6.0 10.0 0.08 0.96 0.57 1 1008.8
20260506150140 44 339 5.0 9.0 0.08 0.95 0.56 1 1008.9
20260506150043 44 327 5.0 10.0 0.08 0.95 0.56 1 1008.9
20260506145926 44 333 5.0 10.0 0.08 0.95 0.56 1 1008.9
20260506145848 44 317 6.0 10.0 0.08 0.95 0.56 1 1008.9
20260506145726 44 327 6.0 10.0 0.08 0.95 0.56 1 1008.7
20260506145629 44 327 6.0 10.0 0.08 0.95 0.56 1 1008.7
20260506145551 44 320 6.0 10.0 0.07 0.94 0.55 1 1008.7
20260506145421 44 324 6.0 10.0 0.08 0.94 0.55 1 1008.6
20260506145315 44 334 6.0 10.0 0.08 0.94 0.55 1 1008.6
20260506145134 44 317 5.0 10.0 0.08 0.94 0.55 1 1008.6
20260506145048 44 346 6.0 10.0 0.08 0.94 0.55 1 1008.6
20260506144917 44 338 6.0 11.0 0.09 0.94 0.55 1 1008.6
20260506144839 44 317 6.0 11.0 0.08 0.93 0.54 1 1008.6
20260506144640 44 335 6.0 11.0 0.08 0.93 0.54 1 1008.6
20260506144525 44 325 6.0 11.0 0.08 0.93 0.54 1 1008.6
20260506144425 44 317 7.0 11.0 0.08 0.93 0.54 1 1008.6
20260506144346 44 318 8.0 11.0 0.08 0.93 0.54 1 1008.6
20260506144307 44 336 8.0 11.0 0.07 0.92 0.53 1 1008.6
20260506144149 44 331 7.0 11.0 0.08 0.92 0.53 1 1008.6
20260506144050 44 333 6.0 11.0 0.08 0.92 0.53 1 1008.6
20260506144011 44 318 5.0 8.0 0.08 0.92 0.53 1 1008.5
20260506143913 44 323 4.0 8.0 0.08 0.92 0.53 1 1008.5
20260506143836 44 309 4.0 8.0 0.08 0.92 0.53 1 1008.5
20260506143705 44 304 4.0 8.0 0.07 0.91 0.52 1 1008.6
20260506143619 44 333 5.0 10.0 0.08 0.91 0.52 1 1008.6
20260506143428 44 336 4.0 10.0 0.08 0.91 0.52 1 1008.6
20260506143346 44 305 4.0 10.0 0.08 0.91 0.52 1 1008.6
20260506143214 44 333 3.0 10.0 0.08 0.91 0.52 1 1008.6
20260506143135 44 333 4.0 10.0 0.08 0.91 0.52 1 1008.6
20260506143005 44 319 7.0 10.0 0.08 0.91 0.52 1 1008.6
20260506142838 44 327 6.0 10.0 0.07 0.90 0.51 1 1008.6
20260506142801 44 338 5.0 11.0 0.07 0.90 0.51 1 1008.6
20260506142624 44 342 5.0 11.0 0.08 0.90 0.51 1 1008.5
20260506142540 44 321 5.0 11.0 0.08 0.90 0.51 1 1008.5
20260506142410 44 360 4.0 11.0 0.08 0.90 0.51 1 1008.5
20260506142332 44 348 6.0 11.0 0.08 0.90 0.51 1 1008.5
20260506142128 44 355 7.0 11.0 0.08 0.90 0.51 1 1008.6
20260506142050 44 345 7.0 11.0 0.07 0.89 0.50 1 1008.6
20260506141932 44 338 6.0 11.0 0.07 0.89 0.50 1 1008.6
20260506141856 44 360 5.0 11.0 0.07 0.89 0.50 1 1008.6
20260506141810 44 306 4.0 11.0 0.07 0.89 0.50 1 1008.7
20260506141619 44 313 5.0 11.0 0.07 0.89 0.50 1 1008.6
20260506141520 44 325 6.0 11.0 0.07 0.89 0.50 1 1008.7
20260506141323 44 347 6.0 11.0 0.07 0.89 0.50 1 1008.6
20260506141245 44 336 6.0 10.0 0.07 0.89 0.50 1 1008.6
20260506141132 44 327 6.0 9.0 0.06 0.88 0.49 1 1008.6
20260506141053 44 337 7.0 10.0 0.06 0.88 0.49 1 1008.6
20260506140834 44 346 5.0 12.0 0.06 0.88 0.49 1 1008.6
20260506140736 44 320 5.0 12.0 0.06 0.88 0.49 1 1008.6
20260506140639 44 317 5.0 12.0 0.06 0.88 0.49 1 1008.7
20260506140600 44 313 6.0 12.0 0.07 0.88 0.49 1 1008.7
20260506140422 44 326 6.0 12.0 0.07 0.88 0.49 1 1008.8
20260506140345 44 338 6.0 12.0 0.07 0.88 0.49 1 1008.8
20260506140212 44 342 7.0 12.0 0.06 0.87 0.48 1 1008.6
20260506140127 44 307 7.0 10.0 0.06 0.87 0.48 1 1008.6
20260506135940 44 315 6.0 9.0 0.06 0.87 0.48 1 1008.6
20260506135902 44 340 5.0 9.0 0.06 0.87 0.48 1 1008.6
20260506135816 44 344 5.0 10.0 0.06 0.87 0.48 1 1008.6
20260506135626 44 336 6.0 14.0 0.06 0.87 0.48 1 1008.6
20260506135540 44 332 6.0 14.0 0.05 0.86 0.47 1 1008.8
20260506135409 44 331 6.0 14.0 0.05 0.86 0.47 1 1008.8
20260506135331 44 321 5.0 14.0 0.05 0.86 0.47 1 1008.8
20260506135132 44 325 6.0 14.0 0.06 0.86 0.47 1 1008.7
20260506135056 44 329 7.0 14.0 0.06 0.86 0.47 1 1008.7
20260506134959 44 312 8.0 14.0 0.05 0.85 0.46 1 1008.8
20260506134924 44 327 8.0 14.0 0.05 0.85 0.46 1 1008.8
20260506134729 44 335 5.0 10.0 0.05 0.85 0.46 1 1008.7
20260506134630 44 302 6.0 10.0 0.05 0.85 0.46 1 1008.7
20260506134532 44 287 7.0 10.0 0.05 0.85 0.46 1 1008.8
20260506134454 44 326 7.0 10.0 0.05 0.85 0.46 1 1008.8
20260506134322 44 323 6.0 11.0 0.05 0.84 0.45 1 1008.7
20260506134244 44 317 7.0 11.0 0.05 0.84 0.45 1 1008.8
20260506134044 44 318 5.0 12.0 0.05 0.84 0.45 1 1008.7
20260506133832 44 304 6.0 12.0 0.05 0.84 0.45 1 1008.6
20260506133746 44 304 7.0 12.0 0.05 0.84 0.45 1 1008.6
20260506133538 44 338 7.0 12.0 0.05 0.83 0.44 1 1008.6
20260506133452 44 332 7.0 12.0 0.05 0.83 0.44 1 1008.6
20260506133321 44 304 8.0 12.0 0.05 0.83 0.44 1 1008.5
20260506133241 44 309 8.0 12.0 0.05 0.83 0.44 1 1008.5
20260506133104 44 343 7.0 11.0 0.06 0.83 0.44 1 1008.5
20260506132910 44 360 6.0 11.0 0.07 0.83 0.44 1 1008.5
20260506132832 44 345 6.0 11.0 0.07 0.83 0.44 1 1008.5
20260506132635 45 324 8.0 12.0 0.07 0.82 0.43 1 1008.6
20260506132557 45 314 6.0 12.0 0.07 0.82 0.43 1 1008.6
20260506132500 45 345 5.0 12.0 0.07 0.82 0.43 1 1008.5
20260506132401 45 320 6.0 12.0 0.07 0.82 0.43 1 1008.5
20260506132325 45 342 6.0 12.0 0.08 0.82 0.43 1 1008.5
20260506132204 45 333 6.0 12.0 0.08 0.82 0.43 1 1008.5
20260506132118 45 317 6.0 12.0 0.08 0.82 0.43 1 1008.6
20260506131948 45 337 7.0 13.0 0.08 0.82 0.43 1 1008.6
20260506131848 45 314 8.0 13.0 0.08 0.82 0.43 1 1008.6
20260506131712 45 355 7.0 14.0 0.08 0.82 0.43 1 1008.6
20260506131633 45 324 6.0 14.0 0.08 0.82 0.43 1 1008.6
20260506131513 45 329 7.0 14.0 0.09 0.82 0.43 1 1008.6
20260506131427 45 331 7.0 15.0 0.09 0.82 0.43 1 1008.5
20260506131307 45 336 9.0 15.0 0.09 0.82 0.43 1 1008.6
20260506131228 45 340 10.0 15.0 0.09 0.82 0.43 1 1008.7
20260506131031 45 344 9.0 15.0 0.09 0.82 0.43 1 1008.8
20260506130935 45 323 8.0 15.0 0.09 0.82 0.43 1 1008.8
20260506130838 45 344 7.0 15.0 0.10 0.82 0.43 1 1008.8
20260506130800 45 355 8.0 15.0 0.10 0.82 0.43 1 1008.8
20260506130609 45 355 11.0 15.0 0.10 0.82 0.43 1 1008.8
20260506130524 45 311 9.0 13.0 0.09 0.81 0.42 1 1008.8
20260506130333 45 11 5.0 13.0 0.09 0.81 0.42 1 1008.8
20260506130247 45 355 6.0 13.0 0.09 0.81 0.42 1 1008.8
20260506130117 45 336 8.0 13.0 0.10 0.81 0.42 1 1008.8
20260506130017 45 348 7.0 13.0 0.10 0.81 0.42 1 1008.9
20260506125837 45 339 8.0 13.0 0.10 0.81 0.42 1 1008.9
20260506125804 45 355 8.0 13.0 0.10 0.81 0.42 1 1008.9
20260506125717 45 333 9.0 13.0 0.10 0.81 0.42 1 1008.9
20260506125527 45 315 7.0 11.0 0.11 0.81 0.42 1 1008.9
20260506125441 45 355 6.0 10.0 0.11 0.81 0.42 1 1009.0
20260506125309 45 315 7.0 10.0 0.11 0.81 0.42 1 1009.0
20260506125231 45 317 6.0 10.0 0.10 0.80 0.41 1 1009.0
20260506125033 45 348 5.0 10.0 0.10 0.80 0.41 1 1009.0
20260506124935 45 340 5.0 10.0 0.10 0.80 0.41 1 1009.0